sat.trackr.live / text

‹ back to catalog

STARLINK-3386

NORAD 51126 · 2022-005Y

PAYLOAD ACTIVE UNKNOWN

§ Identity

Operator
Country
US
Launch date
2022-01-19
Launch site
AFETR
Launch vehicle
Mass (kg)
RCS (m²)

Purposes: comms

External: N2YO · Heavens-Above · Gunter

§ Orbital elements

Epoch: 2026-05-25T04:46:34.318848Z

Period
95.44 min
Inclination
53.2142°
Eccentricity
0.0001349
Mean motion
15.08854272 rev/d
Perigee alt
538.8 km
Apogee alt
540.6 km
Semi-major
6,917.8 km
B*
1.2421e-4
RAAN
315.6666°
Arg perigee
105.0047°
Mean anomaly
255.1095°
Rev number
24,029

§ Raw data

STARLINK-33861 51126U 22005Y   26145.19900832  .00001690  00000+0  12421-3 0  99922 51126  53.2142 315.6666 0001349 105.0047 255.1095 15.08854272240297

JSON: /api/v1/satellites/51126 · /tle

For live sub-satellite position, see the globe view (requires WebGL).

§ Visibility from observer

Set your observer location to see the next 7 days of passes ≥ 10°. The values pass through the URL so the page stays shareable.

No JS? Fill the form by hand. The geolocation button needs JavaScript.